Location: Unspecified
(0.0000°N, 0.0000°E)
Time: 11:13:40
(UTC+00:00)

Nadezhda 6 - Pass Details

Date: 14 June 2023
Orbit: 658 x 677 km, 97.8° (Epoch: 22 September)

Event Time Altitude Azimuth Distance (km) Brightness Sun altitude
Rises 05:08:43 0° 43° (NE) 3,006 10.4 -11.8°
Reaches altitude 10° 05:11:45 10° 64° (ENE) 2,092 9.9 -11.1°
Maximum altitude 05:14:31 16° 102° (ESE) 1,721 8.7 -10.5°
Drops below altitude 10° 05:17:18 10° 140° (SE) 2,090 8.5 -9.8°
Sets 05:20:17 0° 161° (SSE) 3,002 9.0 -9.2°
